Starlink 4021

operational
NORAD ID: 53149 Int'l Des: 2022-083 Owner: SPXS Country: US Constellation: starlink
LEOCIRCULAR

Starlink 4021について

説明を読み込み中...

リアルタイム位置

3D地球を読み込み中...

次回通過

高度履歴

Altitude vs Time

uPlot chart will show altitude changes over time

軌道要素

1 53149U 22083T 25305.48363462 .00002655 00000-0 18495-3 0 9996
2 53149 53.2192 19.8599 0001506 100.8404 259.2758 15.08823443182003
Epoch: Nov 1, 2025 • Age: 19 hours

現在のステータス

高度 545.1 km
速度 7.60 km/s
衛星直下点 51.81°N, 60.09°W
打ち上げ日 Jul 17, 2022
運用期間 3.2 years
タイプ internet

技術仕様

分類 Payload
質量 297.00 kg
乾燥質量 275.00 kg
総質量 297.00 kg
長さ 0.20 m
直径 2.80 m
スパン 9.00 m
形状 Box + pan
製造者 SPXS
バスタイプ Starlink
フェーズステータス In Orbit
所有者/国 SPXS/US

大規模コンステレーション

Loading constellations...